Time,TemperatureF,DewpointF,PressureIn,WindDirection,WindDirectionDegrees,WindSpeedMPH,WindSpeedGustMPH,Humidity,HourlyPrecipIn,Conditions,Clouds,dailyrainin,SoftwareType,DateUTC
2013-02-02 00:02:00,25.0,14.0,-100.00,SSW,200,10.0,14.0,63,-99.99,,,-99.99,,2013-02-02 06:02:00,
2013-02-02 00:12:00,25.0,15.0,-100.00,SSW,210,10.0,15.0,63,-99.99,,,-99.99,,2013-02-02 06:12:00,
2013-02-02 00:32:00,25.0,15.0,-100.00,SSW,210,10.0,14.0,63,-99.99,,,-99.99,,2013-02-02 06:32:00,
2013-02-02 00:42:00,26.0,15.0,-100.00,SSW,210,11.0,14.0,63,-99.99,,,-99.99,,2013-02-02 06:42:00,
2013-02-02 02:01:00,26.0,15.0,-100.00,SW,220,13.0,15.0,63,-99.99,,,-99.99,,2013-02-02 08:01:00,
2013-02-02 02:11:00,27.0,16.0,-100.00,SW,220,13.0,16.0,63,-99.99,,,-99.99,,2013-02-02 08:11:00,
2013-02-02 02:31:00,27.0,16.0,-100.00,WSW,245,9.0,14.0,63,-99.99,,,-99.99,,2013-02-02 08:31:00,
2013-02-02 02:41:00,27.0,16.0,-100.00,WSW,240,8.0,14.0,63,-99.99,,,-99.99,,2013-02-02 08:41:00,
2013-02-02 02:42:00,28.0,17.0,-100.00,WSW,245,9.0,11.0,62,-99.99,,,-99.99,,2013-02-02 08:42:00,
2013-02-02 03:01:00,27.0,17.0,-100.00,WSW,250,5.0,9.0,63,-99.99,,,-99.99,,2013-02-02 09:01:00,
2013-02-02 03:02:00,27.0,16.0,-100.00,WSW,245,9.0,12.0,62,-99.99,,,-99.99,,2013-02-02 09:02:00,
2013-02-02 03:11:00,28.0,17.0,-100.00,West,270,9.0,14.0,63,-99.99,,,-99.99,,2013-02-02 09:11:00,
2013-02-02 03:31:00,28.0,17.0,-100.00,WSW,255,9.0,11.0,62,-99.99,,,-99.99,,2013-02-02 09:31:00,
2013-02-02 03:32:00,28.0,17.0,-100.00,West,260,6.0,8.0,63,-99.99,,,-99.99,,2013-02-02 09:32:00,
2013-02-02 03:42:00,28.0,17.0,-100.00,WSW,250,6.0,8.0,63,-99.99,,,-99.99,,2013-02-02 09:42:00,
2013-02-02 04:11:00,28.0,17.0,-100.00,WSW,240,8.0,12.0,63,-99.99,,,-99.99,,2013-02-02 10:11:00,
2013-02-02 04:32:00,27.0,17.0,-100.00,WNW,295,2.0,4.0,65,-99.99,,,-99.99,,2013-02-02 10:32:00,
2013-02-02 04:42:00,27.0,17.0,-100.00,West,270,8.0,9.0,65,-99.99,,,-99.99,,2013-02-02 10:42:00,
2013-02-02 05:01:00,28.0,17.0,-100.00,WSW,245,7.0,12.0,64,-99.99,,,-99.99,,2013-02-02 11:01:00,
2013-02-02 05:02:00,28.0,18.0,-100.00,West,270,6.0,10.0,66,-99.99,,,-99.99,,2013-02-02 11:02:00,
2013-02-02 05:11:00,28.0,17.0,-100.00,WSW,240,5.0,10.0,64,-99.99,,,-99.99,,2013-02-02 11:11:00,
2013-02-02 05:32:00,27.0,18.0,-100.00,West,265,9.0,10.0,67,-99.99,,,-99.99,,2013-02-02 11:32:00,
2013-02-02 05:42:00,28.0,18.0,-100.00,West,275,7.0,12.0,67,-99.99,,,-99.99,,2013-02-02 11:42:00,
2013-02-02 06:11:00,27.0,18.0,-100.00,WSW,250,5.0,8.0,66,-99.99,,,-99.99,,2013-02-02 12:11:00,
2013-02-02 06:32:00,27.0,19.0,-100.00,West,275,9.0,11.0,69,-99.99,,,-99.99,,2013-02-02 12:32:00,
2013-02-02 06:42:00,28.0,19.0,-100.00,West,275,9.0,11.0,70,-99.99,,,-99.99,,2013-02-02 12:42:00,
2013-02-02 07:02:00,28.0,20.0,-100.00,WNW,290,7.0,9.0,70,-99.99,,,-99.99,,2013-02-02 13:02:00,
2013-02-02 07:32:00,28.0,20.0,-100.00,West,260,6.0,10.0,71,-99.99,,,-99.99,,2013-02-02 13:32:00,
2013-02-02 07:42:00,28.0,20.0,-100.00,West,280,7.0,9.0,72,-99.99,,,-99.99,,2013-02-02 13:42:00,
2013-02-02 08:02:00,28.0,21.0,-100.00,WNW,285,6.0,11.0,73,-99.99,,,-99.99,,2013-02-02 14:02:00,
2013-02-02 08:11:00,28.0,20.0,-100.00,WNW,285,7.0,9.0,71,-99.99,,,-99.99,,2013-02-02 14:11:00,
2013-02-02 08:12:00,29.0,21.0,-100.00,WNW,290,6.0,9.0,73,-99.99,,,-99.99,,2013-02-02 14:12:00,
2013-02-02 08:32:00,30.0,23.0,-100.00,WSW,245,2.0,7.0,73,-99.99,,,-99.99,,2013-02-02 14:32:00,
2013-02-02 08:42:00,31.0,24.0,-100.00,SW,220,4.0,6.0,73,-99.99,,,-99.99,,2013-02-02 14:42:00,
2013-02-02 09:02:00,33.0,25.0,-100.00,West,280,8.0,13.0,72,-99.99,,,-99.99,,2013-02-02 15:02:00,
2013-02-02 09:32:00,34.0,26.0,-100.00,West,280,10.0,12.0,71,-99.99,,,-99.99,,2013-02-02 15:32:00,
2013-02-02 09:42:00,35.0,26.0,-100.00,WNW,285,7.0,13.0,70,-99.99,,,-99.99,,2013-02-02 15:42:00,
2013-02-02 10:02:00,36.0,27.0,-100.00,WNW,295,9.0,11.0,68,-99.99,,,-99.99,,2013-02-02 16:02:00,
2013-02-02 10:11:00,33.0,25.0,-100.00,NW,315,9.0,11.0,71,-99.99,,,-99.99,,2013-02-02 16:11:00,
2013-02-02 10:32:00,38.0,28.0,-100.00,NNW,330,7.0,11.0,67,-99.99,,,-99.99,,2013-02-02 16:32:00,
2013-02-02 10:42:00,38.0,28.0,-100.00,NW,320,10.0,14.0,66,-99.99,,,-99.99,,2013-02-02 16:42:00,
2013-02-02 10:52:00,36.0,27.0,-100.00,WNW,295,9.0,11.0,68,-99.99,,,-99.99,,2013-02-02 16:52:00,
2013-02-02 11:02:00,38.0,28.0,-100.00,NNW,335,7.0,12.0,66,-99.99,,,-99.99,,2013-02-02 17:02:00,
2013-02-02 11:11:00,37.0,28.0,-100.00,WNW,285,8.0,11.0,68,-99.99,,,-99.99,,2013-02-02 17:11:00,
2013-02-02 11:12:00,40.0,29.0,-100.00,WNW,290,10.0,15.0,66,-99.99,,,-99.99,,2013-02-02 17:12:00,
2013-02-02 11:32:00,40.0,29.0,-100.00,North,350,11.0,17.0,65,-99.99,,,-99.99,,2013-02-02 17:32:00,
2013-02-02 11:42:00,40.0,30.0,-100.00,NW,325,11.0,16.0,65,-99.99,,,-99.99,,2013-02-02 17:42:00,
2013-02-02 11:52:00,38.0,28.0,-100.00,NNW,335,7.0,12.0,66,-99.99,,,-99.99,,2013-02-02 17:52:00,
2013-02-02 12:02:00,42.0,31.0,-100.00,WNW,300,8.0,13.0,64,-99.99,,,-99.99,,2013-02-02 18:02:00,
2013-02-02 12:12:00,41.0,30.0,-100.00,NW,305,13.0,16.0,64,-99.99,,,-99.99,,2013-02-02 18:12:00,
2013-02-02 12:32:00,43.0,32.0,-100.00,NW,315,7.0,15.0,65,-99.99,,,-99.99,,2013-02-02 18:32:00,
2013-02-02 12:42:00,44.0,32.0,-100.00,NNW,330,10.0,17.0,64,-99.99,,,-99.99,,2013-02-02 18:42:00,
2013-02-02 13:32:00,45.0,33.0,-100.00,NW,320,10.0,17.0,61,-99.99,,,-99.99,,2013-02-02 19:32:00,
2013-02-02 13:42:00,46.0,33.0,-100.00,NW,325,12.0,19.0,60,-99.99,,,-99.99,,2013-02-02 19:42:00,
2013-02-02 14:01:00,45.0,33.0,-100.00,WNW,285,7.0,11.0,63,-99.99,,,-99.99,,2013-02-02 20:01:00,
2013-02-02 14:02:00,48.0,34.0,-100.00,WNW,285,15.0,19.0,59,-99.99,,,-99.99,,2013-02-02 20:02:00,
2013-02-02 14:11:00,45.0,33.0,-100.00,WNW,295,9.0,15.0,62,-99.99,,,-99.99,,2013-02-02 20:11:00,
2013-02-02 14:32:00,48.0,34.0,-100.00,West,280,16.0,24.0,57,-99.99,,,-99.99,,2013-02-02 20:32:00,
2013-02-02 14:42:00,48.0,33.0,-100.00,WNW,295,18.0,23.0,56,-99.99,,,-99.99,,2013-02-02 20:42:00,
2013-02-02 15:02:00,48.0,33.0,-100.00,WNW,285,14.0,23.0,55,-99.99,,,-99.99,,2013-02-02 21:02:00,
2013-02-02 15:11:00,48.0,34.0,-100.00,WNW,290,14.0,19.0,58,-99.99,,,-99.99,,2013-02-02 21:11:00,
2013-02-02 15:12:00,48.0,33.0,-100.00,WNW,300,12.0,21.0,55,-99.99,,,-99.99,,2013-02-02 21:12:00,
2013-02-02 15:32:00,49.0,33.0,-100.00,NW,315,11.0,16.0,54,-99.99,,,-99.99,,2013-02-02 21:32:00,
2013-02-02 15:42:00,49.0,33.0,-100.00,WNW,285,11.0,16.0,54,-99.99,,,-99.99,,2013-02-02 21:42:00,
2013-02-02 16:02:00,49.0,33.0,-100.00,WNW,295,14.0,19.0,54,-99.99,,,-99.99,,2013-02-02 22:02:00,
2013-02-02 16:32:00,49.0,33.0,-100.00,West,265,10.0,16.0,53,-99.99,,,-99.99,,2013-02-02 22:32:00,
2013-02-02 16:42:00,48.0,33.0,-100.00,West,280,13.0,15.0,54,-99.99,,,-99.99,,2013-02-02 22:42:00,
2013-02-02 16:52:00,49.0,33.0,-100.00,WNW,295,14.0,19.0,54,-99.99,,,-99.99,,2013-02-02 22:52:00,
2013-02-02 17:02:00,48.0,31.0,-100.00,WNW,295,7.0,11.0,53,-99.99,,,-99.99,,2013-02-02 23:02:00,
2013-02-02 17:11:00,49.0,33.0,-100.00,WNW,285,11.0,16.0,54,-99.99,,,-99.99,,2013-02-02 23:11:00,
2013-02-02 17:32:00,45.0,30.0,-100.00,West,275,8.0,9.0,55,-99.99,,,-99.99,,2013-02-02 23:32:00,
2013-02-02 17:42:00,44.0,30.0,-100.00,West,260,9.0,11.0,57,-99.99,,,-99.99,,2013-02-02 23:42:00,
2013-02-02 18:02:00,44.0,30.0,-100.00,WSW,255,9.0,10.0,58,-99.99,,,-99.99,,2013-02-03 00:02:00,
2013-02-02 18:11:00,47.0,32.0,-100.00,WNW,295,6.0,10.0,54,-99.99,,,-99.99,,2013-02-03 00:11:00,
2013-02-02 18:32:00,42.0,30.0,-100.00,WSW,245,9.0,10.0,61,-99.99,,,-99.99,,2013-02-03 00:32:00,
2013-02-02 18:42:00,41.0,29.0,-100.00,WSW,240,9.0,11.0,62,-99.99,,,-99.99,,2013-02-03 00:42:00,
2013-02-02 19:11:00,43.0,30.0,-100.00,West,265,10.0,11.0,60,-99.99,,,-99.99,,2013-02-03 01:11:00,
2013-02-02 19:32:00,41.0,30.0,-100.00,WSW,240,14.0,16.0,65,-99.99,,,-99.99,,2013-02-03 01:32:00,
2013-02-02 19:42:00,42.0,31.0,-100.00,WSW,240,13.0,17.0,65,-99.99,,,-99.99,,2013-02-03 01:42:00,
2013-02-02 20:01:00,41.0,30.0,-100.00,WSW,240,11.0,14.0,64,-99.99,,,-99.99,,2013-02-03 02:01:00,
2013-02-02 20:02:00,42.0,32.0,-100.00,WSW,240,14.0,19.0,66,-99.99,,,-99.99,,2013-02-03 02:02:00,
2013-02-02 20:11:00,41.0,30.0,-100.00,WSW,240,13.0,14.0,65,-99.99,,,-99.99,,2013-02-03 02:11:00,
2013-02-02 20:32:00,42.0,32.0,-100.00,WSW,245,16.0,21.0,66,-99.99,,,-99.99,,2013-02-03 02:32:00,
2013-02-02 20:42:00,42.0,31.0,-100.00,WSW,250,16.0,21.0,66,-99.99,,,-99.99,,2013-02-03 02:42:00,
2013-02-02 21:11:00,42.0,32.0,-100.00,WSW,245,15.0,20.0,66,-99.99,,,-99.99,,2013-02-03 03:11:00,
2013-02-02 21:32:00,44.0,32.0,-100.00,West,275,16.0,22.0,64,-99.99,,,-99.99,,2013-02-03 03:32:00,
2013-02-02 21:42:00,44.0,32.0,-100.00,WNW,285,16.0,21.0,63,-99.99,,,-99.99,,2013-02-03 03:42:00,
2013-02-02 22:01:00,41.0,31.0,-100.00,West,265,16.0,22.0,67,-99.99,,,-99.99,,2013-02-03 04:01:00,
2013-02-02 22:02:00,45.0,32.0,-100.00,NW,315,19.0,24.0,61,-99.99,,,-99.99,,2013-02-03 04:02:00,
2013-02-02 22:11:00,42.0,32.0,-100.00,West,270,16.0,21.0,67,-99.99,,,-99.99,,2013-02-03 04:11:00,
2013-02-02 22:12:00,44.0,31.0,-100.00,NW,315,14.0,23.0,61,-99.99,,,-99.99,,2013-02-03 04:12:00,
2013-02-02 22:32:00,43.0,31.0,-100.00,NW,320,12.0,17.0,63,-99.99,,,-99.99,,2013-02-03 04:32:00,
2013-02-02 22:42:00,43.0,31.0,-100.00,NNW,330,13.0,19.0,63,-99.99,,,-99.99,,2013-02-03 04:42:00,
2013-02-02 23:32:00,41.0,30.0,-100.00,NW,305,11.0,16.0,65,-99.99,,,-99.99,,2013-02-03 05:32:00,
2013-02-02 23:42:00,40.0,30.0,-100.00,NW,310,11.0,14.0,66,-99.99,,,-99.99,,2013-02-03 05:42:00,